Regional Weather Roundup
Issued by NWS

Home | Current Version | Previous Version | Graphics & Text | Print | Product List | Glossary On
Versions: 1 2 3 4 5 6 7 8 9 10 11 12 13 14 15 16 17 18 19 20 21 22 23 24 25 26 27 28 29 30 31 32 33 34 35 36 37 38 39 40 41 42 43 44 45 46 47 48 49 50
000
ASUS43 KIND 190009
RWRIN

WEATHER ROUNDUP FOR INDIANA
NATIONAL WEATHER SERVICE INDIANAPOLIS IN
700 PM EST SAT NOV 18 2017

NOTE: "FAIR" INDICATES FEW OR NO CLOUDS BELOW 12,000 FEET WITH NO
SIGNIFICANT WEATHER AND/OR OBSTRUCTIONS TO VISIBILITY.

* - STATION DOES NOT REPORT WEATHER SUCH AS PRECIPITATION OR FOG.

+ - STATION NOT QUALITY CONTROLLED BY THE NATIONAL WEATHER SERVICE.
    USE DATA WITH CAUTION...ESPECIALLY DEWPOINT AND RELATIVE
    HUMIDITY OBSERVATIONS.

INZ001>003-010>013-019-020-190100-
NORTHWEST INDIANA

CITY           SKY/WX    TMP DP  RH WIND       PRES   REMARKS
GARY /AIRPORT/ CLOUDY    41  36  81 NW25G40   29.63R
KNOX *+        CLOUDY    41  37  87 N28G38    29.53R
LA PORTE +     LGT RAIN  41  39  91 N22G36    29.56R
6HR MIN TEMP:  41; 6HR MAX TEMP:  43;

MICHIGAN CITY+ RAIN      41  39  93 N17G31    29.58R
MONTICELLO +   CLOUDY    41  39  93 NW25G31   29.55R
6HR MIN TEMP:  41; 6HR MAX TEMP:  47; 6HR PCP:  0.17;

RENSSELAER +   CLOUDY    39  34  81 NW20G28   29.61R WCI  30
VALPARAISO     CLOUDY    43  39  86 N17G31    29.58R
6HR MIN TEMP:  43; 6HR MAX TEMP:  47; 6HR PCP:  0.08;


$$

LMZ046-743>745-190100-
SOUTHERN LAKE MICHIGAN

STATION/POSITION TIME  TEMP    WIND        PRES    WAVE
                       AIR SEA DIR/SP/G            HT
                 (UTC) (F)     (DEG/KT/KT) (MB)    (FT)
BURNS HARBOR     2340   43     340/ 28/ 38 1002.0R
MICHIGAN CITY    2340   42     330/ 41/ 44   N/A

$$

INZ004-005-014>016-021>024-190100-
NORTH CENTRAL INDIANA

CITY           SKY/WX    TMP DP  RH WIND       PRES   REMARKS
GOSHEN         LGT RAIN  39  34  82 N18       29.47R WCI  30
6HR MIN TEMP:  39; 6HR MAX TEMP:  47; 6HR PCP:  0.16;

LOGANSPORT +   CLOUDY    41  37  87 NW12G23   29.53R
PERU/GRISSOM   LGT RAIN  42  41  99 NW14      29.49R
6HR MIN TEMP:  41; 6HR MAX TEMP:  52; 6HR PCP:  0.15;

ROCHESTER +    CLOUDY    43  41  93 N15G21    29.50R
SOUTH BEND     LGT RAIN  41  41 100 N21G28    29.52R FOG
6HR MIN TEMP:  40; 6HR MAX TEMP:  42; 6HR PCP:  0.12;

WARSAW +       LGT RAIN  37  36  93 N14G25    29.47R WCI  29

$$

INZ006>009-017-018-025>027-190100-
NORTHEAST INDIANA

CITY           SKY/WX    TMP DP  RH WIND       PRES   REMARKS
AUBURN +       LGT RAIN  37  36  93 NW17G23   29.41R WCI  28
FORT WAYNE     LGT RAIN  41  37  86 NW22G31   29.41R
6HR MIN TEMP:  41; 6HR MAX TEMP:  55; 6HR PCP:  0.30;

HUNTINGTON +   RAIN      38  37  96 N15G24    29.45R WCI  30
6HR MIN TEMP:  38; 6HR MAX TEMP:  54; 6HR PCP:  0.14;

KENDALLVILLE + RAIN      36  35  94 N18G28    29.43R WCI  26

$$

INZ028-029-035-036-043>045-051>053-190100-
WEST CENTRAL INDIANA

CITY           SKY/WX    TMP DP  RH WIND       PRES   REMARKS
CRAWFORDSVL +  LGT SNOW  36  36 100 NW26G35     N/A  WCI  23
6HR MIN TEMP:  35; 6HR MAX TEMP:  53; 6HR PCP:  0.58;

GREENCASTLE +  LGT RAIN  36  34  93 NW12G22   29.59R WCI  27
LAFAYETTE      LGT RAIN  39  38  96 NW22G33   29.59R WCI  29
6HR MIN TEMP:  38; 6HR MAX TEMP:  48; 6HR PCP:  0.14;

TERRE HAUTE    LGT RAIN  38  34  85 NW13      29.65R WCI  30
6HR MIN TEMP:  37; 6HR MAX TEMP:  67; 6HR PCP:  0.57;


$$

INZ030>032-037>040-046>048-054>057-064-065-190100-
CENTRAL INDIANA

CITY           SKY/WX    TMP DP  RH WIND       PRES   REMARKS
CP ATTERBURY + DRIZZLE   43  39  87 NW18G31   29.51R
COLUMBUS       RAIN      43  41  93 SW22G31   29.49R FOG
FRANKFORT +    LGT RAIN  42  40  92 NW20G30   29.55R
6HR MIN TEMP:  42; 6HR MAX TEMP:  56; 6HR PCP:  0.15;

GREENWOOD *+   CLOUDY    44  43  96 NW20G33   29.51R
INDIANAPOLIS   LGT RAIN  40  37  89 NW22G33   29.54R WCI  30
6HR MIN TEMP:  40; 6HR MAX TEMP:  64; 6HR PCP:  0.75;

-EAGLE CREEK   LGT RAIN  41  37  86 NW23G32   29.52R
6HR MIN TEMP:  41; 6HR MAX TEMP:  65; 6HR PCP:  0.81;

KOKOMO +       LGT RAIN  42  39  89 NW22G29   29.50R
6HR MIN TEMP:  41; 6HR MAX TEMP:  53; 6HR PCP:  0.16;

MARION +       LGT RAIN  40  39  99 N18G29    29.47R WCI  30
MT COMFORT *+  CLOUDY    41  41 100 NW23G32   29.48R
SHELBYVILLE    LGT RAIN  44  40  85 NW24G30   29.48R
6HR MIN TEMP:  44; 6HR MAX TEMP:  66; 6HR PCP:  0.48;

ZIONSVILLE +   RAIN      40  39  95 NW23G32   29.51R WCI  30
6HR MIN TEMP:  40; 6HR MAX TEMP:  61; 6HR PCP:  1.34;


$$

INZ033-034-041-042-049-050-058-059-190100-
EAST CENTRAL INDIANA

CITY           SKY/WX    TMP DP  RH WIND       PRES   REMARKS
MUNCIE         LGT RAIN  43  40  89 NW23      29.43R FOG
6HR MIN TEMP:  43; 6HR MAX TEMP:  64; 6HR PCP:  1.44;

RICHMOND +     LGT RAIN  41  41 100 NW26G33   29.38R

$$

INZ060-061-067>069-081>083-085>088-190100-
SOUTHWEST INDIANA

CITY           SKY/WX    TMP DP  RH WIND       PRES   REMARKS
EVANSVILLE     LGT RAIN  40  37  89 NW24G38   29.71R WCI  29
6HR MIN TEMP:  41; 6HR MAX TEMP:  68; 6HR PCP:  0.36;

HUNTINGBURG +  LGT RAIN  41  39  93 NW21G32   29.62R FOG
6HR MIN TEMP:  41; 6HR MAX TEMP:  66; 6HR PCP:  0.50;

WASHINGTON +   DRIZZLE   39  37  91 NW25G36   29.65R WCI  28
6HR MIN TEMP:  39; 6HR MAX TEMP:  67; 6HR PCP:  0.10;


$$

INZ062-063-066-070>080-084-089>092-190100-
SOUTH CENTRAL AND SOUTHEAST INDIANA

CITY           SKY/WX    TMP DP  RH WIND       PRES   REMARKS
BLOOMINGTON    LGT RAIN  41  36  82 NW14G28   29.58R
6HR MIN TEMP:  41; 6HR MAX TEMP:  65; 6HR PCP:  0.57;

MADISON *+     CLOUDY    46  45  93 NW14G23   29.46R
NORTH VERNON + LGT RAIN  43  41  93 NW16G22   29.47R
SEYMOUR +      CLOUDY    46  43  87 NW21G28   29.50

$$





USA.gov is the U.S. government's official web portal to all federal, state and local government web resources and services.